Location: Austin
(30.3000°N, 97.7500°W)
Time: 22:53:26
(UTC-06:00)

Cosmos 1461 - Pass Details

Date: 03 December 2025
Orbit: 430 x 519 km, 65.0° (Epoch: 07 December)

Event Time Altitude Azimuth Distance (km) Brightness Sun altitude
Exits shadow 05:44:44 21° 219° (SW) 1,136 4.2 -18.4°
Drops below altitude 10° 05:46:35 10° 193° (SSW) 1,644 5.3 -18.0°
Sets 05:48:55 0° 179° (S) 2,499 6.4 -17.6°
